FW8494 Weather Reports


time (UTC)temp
C
wind
direction
speed
KPH
gust
KPH
rain 1hr
cm
rain 24hr
cm
rain mn
cm
humidity
%
barometer
mb
20260504204529 13 335 29.0 0.0 0.00 0.00 0.00 29 1012.1
20260504203024 12 302 27.4 0.0 0.00 0.00 0.00 30 1011.7
20260504201518 12 332 32.2 0.0 0.00 0.00 0.00 31 1011.7
20260504200018 12 302 30.6 0.0 0.00 0.00 0.00 30 1011.7
20260504194517 12 335 29.0 0.0 0.00 0.00 0.00 31 1011.7
20260504193017 12 337 29.0 0.0 0.00 0.00 0.00 32 1011.7
20260504191516 12 321 27.4 0.0 0.00 0.00 0.00 32 1011.8
20260504190016 12 320 29.0 0.0 0.00 0.00 0.00 32 1011.8
20260504184514 12 338 24.1 0.0 0.00 0.00 0.00 31 1011.8
20260504183014 13 360 20.9 0.0 0.00 0.00 0.00 32 1011.8
20260504181513 12 329 25.7 0.0 0.00 0.00 0.00 33 1011.8
20260504180013 13 329 24.1 0.0 0.00 0.00 0.00 31 1011.7
20260504174509 13 317 25.7 0.0 0.00 0.00 0.00 34 1011.8
20260504173008 12 355 20.9 0.0 0.00 0.00 0.00 35 1011.8
20260504171508 12 303 20.9 0.0 0.00 0.00 0.00 36 1011.7
20260504081523 8 355 20.9 0.0 0.00 0.00 0.00 54 1011.1
20260504044550 13 29 29.0 0.0 0.00 0.00 0.00 37 1006.0
20260504043055 15 5 24.1 0.0 0.00 0.00 0.00 35 1005.4
20260504041549 15 14 20.9 0.0 0.00 0.00 0.00 33 1005.1
20260504040049 15 16 17.7 0.0 0.00 0.00 0.00 33 1004.7
20260504034555 15 20 19.3 0.0 0.00 0.00 0.00 33 1004.5
20260504033047 15 37 20.9 0.0 0.00 0.00 0.00 34 1004.1
20260504031547 15 25 17.7 0.0 0.00 0.00 0.00 34 1003.8
20260504030046 16 27 19.3 0.0 0.00 0.00 0.00 32 1003.6
20260504024551 17 43 17.7 0.0 0.00 0.00 0.00 28 1003.2
20260504023045 18 21 9.7 0.0 0.00 0.00 0.00 23 1003.0
20260504021549 19 13 9.7 0.0 0.00 0.00 0.00 21 1002.9
20260504020044 20 5 14.5 0.0 0.00 0.00 0.00 20 1003.0
20260504014544 21 5 16.1 0.0 0.00 0.00 0.00 19 1003.0
20260504013056 21 5 16.1 0.0 0.00 0.00 0.00 19 1003.0
20260504011543 22 333 17.7 0.0 0.00 0.00 0.00 18 1003.1
20260504010043 22 355 17.7 0.0 0.00 0.00 0.00 18 1003.2
20260504004539 22 330 17.7 0.0 0.00 0.00 0.00 18 1003.3
20260504003039 23 327 17.7 0.0 0.00 0.00 0.00 18 1003.4
20260504001540 23 360 19.3 0.0 0.00 0.00 0.00 18 1003.5
20260504000037 23 311 20.9 0.0 0.00 0.00 0.00 18 1003.7
20260503234535 23 355 19.3 0.0 0.00 0.00 0.00 17 1003.7
20260503233034 24 344 14.5 0.0 0.00 0.00 0.00 16 1003.7
20260503231533 25 340 16.1 0.0 0.00 0.00 0.00 16 1004.0
20260503230039 24 303 11.3 0.0 0.00 0.00 0.00 16 1004.0
20260503224529 24 336 19.3 0.0 0.00 0.00 0.00 16 1004.2
20260503223027 23 259 14.5 0.0 0.00 0.00 0.00 16 1004.5
20260503221529 23 267 12.9 0.0 0.00 0.00 0.00 16 1004.8
20260503220025 23 284 22.5 0.0 0.00 0.00 0.00 16 1005.0
20260503214536 23 278 9.7 0.0 0.00 0.00 0.00 18 1005.1
20260503213022 23 245 12.9 0.0 0.00 0.00 0.00 17 1005.4
20260503211519 24 324 12.9 0.0 0.00 0.00 0.00 16 1005.8
20260503210017 23 275 11.3 0.0 0.00 0.00 0.00 18 1006.1